Temperature
26 23 22 23 25 25 26 26 25 27 28 25 21 18 17 16 16 16 16 15 15 14 14 15 16 17 18 18 18 18 18 17 17 18 18 19 19 19 19 19 19 18 18 17
23 23 25 26 27 27 26 25 25 26 27 26 19 18 17 17 15 15 14 14 14 14 15 15 16 17 17 18 18 17 17 17 18 18 19 19 19 19 19 19 18 18 18 17
25 26 27 27 26 26 26 26 26 26 25 24 21 18 17 17 17 16 15 15 15 14 15 16 17 18 18 17 17 17 17 18 18 19 19 19 19 19 19 19 19 18 18 17
25 26 26 26 25 26 24 26 27 26 24 22 22 18 17 17 16 16 15 15 15 15 15 16 17 17 18 17 17 18 18 18 19 19 19 19 19 19 19 19 19 19 19 18
23 25 25 25 25 26 25 26 26 25 24 21 21 18 17 17 16 15 16 15 16 16 15 15 15 16 16 17 17 17 17 17 18 18 18 19 19 19 19 19 19 19 19 18
24 26 26 26 26 26 26 25 22 20 19 20 21 19 17 16 16 16 16 16 16 16 16 16 15 16 16 16 16 16 16 16 16 17 17 17 17 18 18 18 18 18 18 18
23 24 25 26 26 26 23 21 19 20 19 20 20 18 16 17 17 17 16 16 16 16 16 16 16 16 16 16 16 16 16 16 16 16 16 16 16 16 16 17 17 17 17 17
22 22 25 26 27 26 25 21 20 20 19 19 19 18 16 18 18 17 17 16 16 16 16 16 16 16 15 15 15 15 15 15 15 15 15 15 15 15 14 14 14 15 15 16
22 23 25 27 26 25 25 22 21 19 20 18 18 17 17 18 17 17 16 16 16 16 16 16 16 15 15 15 14 14 14 15 15 15 14 14 14 14 14 14 14 14 13 14
22 23 24 26 25 24 24 23 19 19 20 19 19 18 15 16 16 16 16 16 16 16 16 16 16 16 15 15 14 14 13 13 14 14 14 14 13 13 13 13 13 13 13 13
23 22 22 23 24 23 23 23 20 18 18 18 18 18 17 16 16 16 16 16 16 16 16 16 16 16 15 15 14 14 13 13 13 14 14 14 14 13 13 12 12 12 12 13
21 19 19 22 23 23 23 22 20 19 19 17 17 17 16 16 16 16 16 17 17 17 16 16 15 15 14 14 14 14 14 13 13 13 13 13 13 13 12 12 12 12 12 12
21 19 18 19 20 21 21 21 20 17 16 17 16 16 16 15 16 16 16 16 16 15 15 14 14 14 14 14 14 14 13 13 13 13 13 13 13 12 12 12 12 12 12 12
20 18 18 19 19 20 20 20 19 17 15 16 17 16 15 14 14 15 15 15 15 14 14 14 14 14 13 13 13 13 13 13 13 13 13 13 12 12 12 12 12 12 11 11
18 18 20 20 21 20 20 20 20 18 18 17 17 15 14 13 14 14 15 14 14 14 14 14 14 13 13 13 13 12 12 12 12 12 12 12 12 12 12 12 11 11 11 11
18 19 18 19 20 20 18 19 19 19 18 17 15 15 14 14 15 14 14 14 14 13 14 13 13 13 13 13 13 12 12 12 12 11 12 12 12 12 12 11 11 11 11 11
18 18 19 18 20 20 16 18 17 17 16 15 14 13 13 12 13 14 14 14 14 14 14 13 13 13 13 12 12 12 11 11 11 11 11 11 11 11 11 11 11 11 11 11
19 17 16 17 18 19 18 19 18 17 14 15 15 13 13 13 14 14 14 14 14 13 13 13 12 12 12 12 11 11 11 10 10 10 10 10 10 10 10 10 10 10 10 10
18 18 16 16 17 18 18 18 18 17 15 14 13 13 14 14 13 13 14 13 13 13 12 12 11 11 11 10 10 9 9 9 8 8 8 8 8 8 8 8 9 9 9 9
17 16 16 16 17 17 17 18 18 17 15 14 14 13 14 12 10 11 13 13 12 11 11 10 10 9 9 8 7 7 7 6 6 6 6 6 6 6 6 7 7 7 8 8
17 16 15 16 16 16 17 17 16 13 13 14 15 15 14 12 11 13 13 12 11 10 10 9 8 7 7 6 6 5 5 4 4 4 4 4 4 5 5 5 5 6 6 7
17 16 16 15 15 15 16 16 14 13 15 15 15 15 14 14 13 13 12 11 10 9 8 7 7 6 6 5 4 4 4 3 3 3 3 3 4 4 4 4 4 4 5 5
16 15 14 15 14 16 17 16 16 16 16 15 15 14 14 13 12 11 11 10 9 8 7 6 5 4 4 4 4 3 3 3 3 3 3 3 3 4 4 4 4 4 4 5
17 16 15 15 15 16 16 16 16 16 15 15 14 14 13 12 11 10 9 9 8 7 6 5 4 4 4 4 4 4 3 3 3 3 3 3 3 3 4 4 4 4 4 4
17 17 15 15 16 16 16 16 16 15 15 14 14 13 12 11 10 9 9 8 7 6 5 5 4 4 4 4 4 4 4 3 3 3 3 3 3 3 3 4 4 4 4 4
16 15 15 14 15 14 16 16 15 15 14 13 13 12 11 10 9 9 8 7 6 5 5 5 4 4 4 4 4 4 4 4 3 3 3 3 3 3 3 3 4 4 4 5
Wind_Speed
3 3 5 10 6 5 6 7 7 6 7 10 19 21 18 15 16 14 11 9 10 9 2 2 4 7 9 8 8 9 11 12 12 8 5 4 4 4 3 4 6 7 7 7
4 3 9 8 7 8 7 6 6 6 9 7 18 19 14 15 12 10 12 12 12 11 8 8 8 8 9 8 6 4 4 6 6 5 4 4 3 3 3 3 5 7 7 6
2 3 7 10 8 7 5 3 3 4 7 8 8 9 13 11 12 11 11 8 9 13 14 15 15 13 12 11 9 7 7 5 4 4 3 2 1 0 1 3 4 6 6 6
4 5 7 9 8 7 8 6 3 3 4 3 5 4 6 6 12 13 11 10 10 11 13 12 13 12 12 10 8 8 7 7 7 6 5 4 1 3 4 4 5 6 7 7
5 5 5 6 6 7 9 7 4 4 1 2 3 7 2 2 5 7 9 11 11 10 8 8 8 9 8 6 6 5 6 6 6 6 5 5 4 3 3 3 3 4 5 6
5 4 4 6 6 5 4 5 9 7 5 2 1 5 3 2 3 1 3 5 5 6 5 5 5 6 5 4 4 4 5 4 5 6 7 7 7 7 7 6 5 3 3 3
7 6 5 4 3 7 9 7 6 7 6 4 2 5 4 2 6 5 4 3 2 1 1 2 2 2 1 0 1 2 3 4 5 6 6 7 7 7 7 6 5 5 4 3
6 9 7 4 1 1 2 8 6 3 4 3 3 2 3 4 7 7 6 4 2 1 1 2 4 4 5 5 5 4 2 1 1 3 3 3 3 2 2 4 4 4 4 4
4 6 6 4 1 4 2 2 5 6 1 2 1 4 1 4 6 6 4 2 0 2 3 4 5 5 6 7 7 7 6 4 4 4 4 4 4 3 4 3 3 3 4 5
6 4 6 5 7 6 3 2 6 4 2 2 2 3 5 10 8 4 3 2 2 3 4 6 7 7 6 5 5 5 6 6 7 7 7 6 7 7 7 6 6 5 5 5
3 2 7 6 6 6 6 4 5 3 4 3 2 5 3 6 5 4 4 6 7 8 9 9 9 9 8 6 5 5 7 8 9 10 9 9 9 8 7 7 8 7 6 6
5 4 3 5 5 1 1 2 3 3 3 2 2 4 3 3 3 2 5 6 7 8 9 9 9 9 8 9 8 8 9 9 10 11 10 10 10 8 8 9 10 8 8 7
5 6 5 10 10 8 7 8 5 6 4 3 2 5 4 3 4 5 7 9 10 10 9 8 8 8 8 9 10 10 10 11 12 11 11 11 11 10 11 12 11 10 9 8
5 5 4 3 6 3 6 9 9 7 4 2 1 3 6 8 8 9 9 10 10 7 6 7 7 7 8 9 9 10 11 11 12 12 11 12 13 14 15 13 11 10 9 9
6 5 4 2 5 10 10 10 10 9 5 2 3 2 3 6 6 7 8 11 8 6 9 10 9 9 9 9 10 10 10 10 11 12 13 15 16 15 12 11 11 11 9 10
5 5 7 6 9 10 8 9 7 6 5 3 3 1 4 6 7 9 11 13 10 10 11 12 11 11 11 11 11 10 10 11 11 11 13 14 14 14 13 13 12 11 10 10
3 4 4 5 5 2 5 5 6 4 4 5 2 5 7 8 9 10 11 11 11 13 14 14 12 12 12 11 11 11 11 10 10 11 12 12 12 13 14 14 12 12 12 10
5 3 3 1 6 3 3 3 6 5 5 4 1 6 7 9 10 9 11 11 13 15 13 13 12 13 12 11 10 9 9 8 8 9 10 9 7 9 9 9 9 10 8 8
4 5 4 3 3 2 0 4 3 2 4 2 4 8 9 10 7 7 10 11 12 14 14 13 13 14 11 10 9 8 8 7 7 7 7 7 7 7 7 7 8 7 6 7
7 7 6 4 3 3 3 5 4 2 2 3 7 9 10 9 8 7 9 11 11 12 11 11 11 10 9 9 9 9 10 10 11 11 10 9 8 8 8 8 8 7 7 7
5 6 5 3 3 3 3 5 5 5 7 9 8 9 8 6 8 11 13 11 10 11 11 10 10 9 10 11 10 11 13 14 15 15 14 12 11 10 10 9 8 8 7 7
3 3 2 2 3 6 4 4 3 6 8 8 8 7 8 9 11 11 11 11 12 12 11 9 10 13 14 13 13 16 17 16 15 16 16 15 13 12 12 8 7 8 8 8
4 7 6 6 6 5 1 5 6 7 7 7 6 8 8 9 9 10 10 11 11 11 10 11 15 17 16 14 13 16 17 15 15 15 16 15 14 12 10 8 9 8 8 7
3 4 3 2 3 4 3 2 5 5 5 6 7 8 8 9 10 10 10 10 11 11 12 15 17 18 17 16 15 15 16 14 14 15 14 13 11 10 9 8 7 6 6 7
6 4 2 3 3 2 5 6 7 6 7 7 8 8 9 9 9 9 10 11 12 14 15 16 16 17 18 17 16 16 15 14 15 14 13 11 10 9 8 8 7 8 7 8
4 6 5 6 7 4 6 7 5 6 7 8 9 9 9 8 9 10 11 11 13 17 15 16 16 16 17 17 17 16 15 14 14 13 11 8 7 7 6 6 7 10 12 14
Wind_Direction
287 100 254 255 244 234 293 322 326 319 346 61 70 63 55 54 60 58 45 41 62 78 71 41 60 99 113 118 126 146 170 197 218 225 219 203 209 217 200 191 186 181 186 185
355 260 261 265 338 349 355 3 358 347 348 52 79 66 55 49 50 49 41 35 43 55 59 56 57 63 72 75 82 105 177 215 238 243 227 202 197 212 216 203 198 196 188 182
358 282 336 352 352 354 342 314 346 2 6 25 90 48 30 35 39 48 50 48 47 51 46 42 43 44 48 47 47 51 45 37 7 337 323 347 58 72 195 214 215 214 197 185
315 322 351 342 324 322 306 270 305 358 43 360 73 81 7 9 23 20 21 25 30 40 48 48 48 47 49 50 50 46 41 28 12 12 25 23 324 250 236 230 224 216 201 191
282 296 314 307 288 311 270 265 317 331 33 62 70 110 239 315 24 6 8 21 19 26 47 60 63 62 53 46 48 46 45 30 12 17 23 35 20 324 312 311 276 246 226 211
258 276 243 244 274 290 324 27 26 37 55 12 238 126 225 233 179 169 19 24 17 21 39 58 72 76 59 31 25 28 36 29 17 25 25 33 29 16 15 13 1 341 315 294
321 320 285 236 311 345 45 63 25 2 0 292 51 99 221 172 169 172 183 218 238 230 31 13 18 60 125 148 346 12 32 19 17 31 29 25 20 17 13 2 7 9 359 345
330 325 314 323 204 229 35 116 133 220 249 296 39 133 214 151 167 174 178 192 214 252 286 277 268 261 250 236 228 225 219 245 21 36 19 8 9 5 338 334 333 336 333 326
246 287 313 350 31 120 5 4 164 155 143 64 129 100 114 209 186 177 162 144 77 347 341 325 308 289 277 268 253 242 234 238 235 220 226 250 264 260 257 259 263 282 299 310
192 254 309 324 24 22 61 97 60 58 52 335 283 221 211 208 214 187 164 191 241 281 291 292 289 281 277 274 265 257 251 254 257 249 241 240 244 249 255 267 273 269 271 278
74 67 329 355 23 353 346 13 78 83 128 131 298 289 255 193 185 182 220 228 232 243 253 259 263 265 264 264 257 251 247 245 249 250 249 252 255 256 261 266 271 274 277 277
23 90 345 315 316 290 293 315 124 117 334 65 139 283 323 145 176 250 286 282 273 273 274 278 282 284 280 277 276 269 259 250 248 249 251 253 258 263 268 268 267 265 268 271
72 73 23 347 346 358 39 15 41 104 87 64 82 314 343 351 332 331 326 324 316 311 319 321 315 302 286 280 279 277 274 269 265 255 246 248 253 255 258 261 264 264 261 265
97 78 127 207 275 352 59 46 49 77 79 52 57 331 6 344 332 334 334 325 314 323 323 311 299 286 279 274 273 273 274 273 273 268 255 246 246 246 249 254 257 261 263 266
80 45 336 316 98 83 68 52 59 74 79 88 327 98 7 332 326 314 312 318 311 311 308 296 283 269 265 264 263 259 258 260 262 261 254 247 246 245 244 246 252 255 255 256
70 52 14 20 103 98 75 45 37 46 36 34 55 79 307 314 333 327 322 320 302 293 296 290 279 268 262 259 257 256 258 261 264 260 254 249 245 241 238 239 243 248 251 253
75 74 38 326 314 92 27 32 47 39 47 77 37 299 309 325 320 309 310 310 292 295 303 300 289 275 268 264 263 264 266 270 273 269 264 257 247 237 232 229 226 228 231 235
124 103 119 326 9 348 217 78 67 101 111 70 342 292 293 295 292 286 290 290 297 303 303 297 291 287 283 281 283 282 285 288 287 286 287 283 267 249 236 223 216 213 205 203
113 127 88 69 325 246 119 14 11 309 205 76 353 322 311 297 299 283 274 282 287 290 293 297 299 298 297 298 300 303 305 306 305 303 301 301 304 292 269 244 232 222 214 211
52 78 90 44 328 263 275 324 302 341 279 297 337 312 304 325 330 291 281 288 292 300 303 304 306 309 316 317 317 314 309 306 300 294 286 280 276 274 273 266 253 237 223 227
18 30 64 52 292 267 322 320 33 54 281 290 287 288 302 304 272 282 300 307 313 311 309 318 332 338 328 320 316 310 305 301 299 297 291 284 277 270 264 257 249 244 240 240
123 92 82 81 340 279 319 47 72 248 253 272 281 291 294 281 280 293 307 313 318 320 328 339 333 322 316 313 310 307 303 301 301 299 295 289 283 278 278 262 252 246 243 242
151 175 184 183 215 235 141 160 217 230 266 284 294 296 290 298 306 315 317 322 326 328 329 329 326 323 322 318 312 308 305 303 301 300 297 293 288 280 273 268 265 257 241 232
227 159 135 263 221 185 166 296 299 296 306 309 305 303 315 321 321 325 330 330 328 327 332 334 331 329 325 321 314 307 305 302 297 296 296 293 288 279 273 268 262 256 243 234
199 156 140 268 276 313 319 314 309 335 348 336 328 326 335 338 334 337 335 329 331 337 337 334 331 327 324 322 319 314 311 305 299 293 290 288 281 276 272 267 259 253 246 239
178 159 170 224 228 207 262 284 345 13 348 338 344 346 346 346 343 342 333 331 337 340 337 332 329 327 324 324 321 318 315 311 306 300 294 287 282 274 267 270 276 259 249 253
Height
1495 1501 1505 1499 1493 1492 1492 1494 1494 1484 1474 1480 1495 1507 1510 1509 1504 1505 1506 1508 1510 1510 1507 1503 1499 1495 1493 1493 1493 1494 1497 1498 1499 1503 1504 1503 1502 1502 1502 1501 1501 1500 1499 1498
1500 1503 1494 1488 1485 1486 1490 1495 1494 1486 1477 1483 1503 1511 1512 1510 1509 1507 1505 1504 1504 1505 1504 1502 1500 1498 1496 1496 1497 1497 1499 1500 1501 1502 1502 1500 1499 1499 1500 1499 1500 1499 1498 1497
1500 1496 1488 1487 1489 1490 1492 1494 1493 1491 1485 1484 1495 1512 1514 1513 1511 1508 1506 1504 1502 1499 1496 1496 1497 1497 1497 1498 1498 1498 1499 1499 1499 1499 1499 1498 1496 1495 1496 1496 1497 1497 1497 1495
1496 1490 1489 1490 1491 1489 1497 1484 1484 1485 1494 1504 1502 1527 1521 1516 1513 1509 1507 1504 1501 1498 1496 1497 1499 1499 1499 1499 1499 1499 1498 1498 1498 1497 1496 1494 1493 1492 1492 1493 1493 1494 1493 1492
1499 1491 1491 1493 1489 1487 1487 1478 1481 1485 1492 1505 1506 1523 1524 1515 1515 1513 1508 1505 1504 1503 1503 1502 1501 1501 1501 1501 1500 1499 1498 1497 1496 1495 1493 1491 1490 1489 1488 1488 1489 1489 1489 1489
1492 1488 1486 1485 1481 1482 1480 1482 1489 1497 1506 1518 1507 1517 1525 1518 1516 1513 1510 1509 1508 1508 1507 1505 1504 1503 1503 1503 1502 1500 1497 1495 1493 1491 1489 1487 1486 1485 1484 1483 1483 1483 1483 1483
1501 1491 1483 1481 1484 1483 1486 1503 1523 1524 1530 1526 1510 1519 1525 1516 1515 1514 1512 1511 1510 1509 1507 1505 1504 1503 1503 1502 1502 1500 1497 1494 1491 1488 1486 1485 1483 1482 1480 1479 1478 1477 1476 1476
1514 1509 1488 1481 1484 1488 1488 1501 1526 1535 1535 1527 1516 1523 1523 1515 1514 1513 1511 1511 1511 1510 1507 1505 1503 1502 1501 1500 1499 1498 1496 1494 1491 1489 1487 1485 1483 1481 1478 1475 1473 1471 1470 1470
1514 1509 1487 1481 1479 1483 1489 1497 1500 1519 1520 1531 1525 1525 1523 1516 1514 1513 1513 1512 1512 1510 1507 1505 1502 1500 1498 1496 1495 1493 1492 1490 1489 1486 1485 1483 1481 1478 1476 1473 1470 1468 1465 1464
1502 1508 1494 1486 1483 1484 1488 1492 1508 1519 1528 1535 1527 1526 1530 1520 1516 1515 1515 1514 1512 1510 1507 1503 1500 1498 1495 1492 1490 1488 1487 1486 1485 1483 1481 1478 1476 1473 1471 1468 1466 1463 1461 1460
1496 1507 1504 1495 1495 1498 1495 1496 1505 1517 1522 1533 1537 1531 1516 1515 1516 1517 1516 1514 1511 1508 1504 1501 1497 1494 1491 1488 1486 1484 1482 1480 1479 1477 1475 1473 1470 1467 1465 1462 1460 1457 1455 1454
1500 1511 1517 1505 1495 1493 1494 1497 1503 1519 1523 1527 1535 1534 1515 1515 1516 1516 1515 1513 1510 1507 1503 1499 1495 1492 1489 1486 1483 1480 1478 1475 1473 1471 1469 1466 1464 1462 1459 1457 1455 1454 1452 1451
1502 1516 1530 1524 1513 1502 1503 1501 1501 1511 1523 1529 1537 1536 1517 1517 1517 1517 1516 1513 1510 1505 1501 1498 1494 1490 1487 1483 1480 1477 1474 1470 1467 1465 1462 1459 1457 1456 1453 1452 1450 1449 1448 1446
1500 1518 1528 1535 1527 1512 1514 1510 1508 1515 1531 1532 1530 1529 1525 1521 1519 1517 1515 1512 1507 1503 1499 1496 1492 1488 1484 1480 1477 1473 1469 1465 1461 1457 1454 1451 1449 1448 1446 1445 1444 1443 1442 1440
1504 1519 1515 1515 1511 1512 1515 1514 1513 1518 1521 1528 1526 1526 1527 1523 1519 1516 1512 1508 1503 1499 1495 1491 1486 1482 1478 1474 1470 1466 1461 1457 1453 1449 1446 1443 1441 1439 1438 1437 1436 1436 1435 1434
1508 1517 1518 1519 1514 1513 1519 1518 1518 1518 1520 1522 1524 1525 1522 1519 1515 1511 1507 1502 1497 1493 1489 1484 1480 1475 1470 1465 1461 1456 1452 1448 1444 1440 1437 1434 1432 1430 1428 1428 1428 1428 1428 1428
1513 1518 1523 1527 1516 1515 1529 1523 1522 1523 1524 1525 1529 1527 1520 1517 1512 1508 1503 1498 1494 1488 1482 1477 1472 1467 1462 1456 1451 1445 1441 1437 1434 1431 1428 1425 1422 1420 1418 1418 1418 1419 1419 1420
1512 1518 1527 1530 1528 1531 1529 1518 1518 1521 1525 1523 1522 1521 1517 1512 1508 1505 1500 1494 1488 1482 1476 1470 1464 1458 1453 1447 1442 1436 1431 1427 1423 1420 1417 1414 1412 1410 1410 1409 1409 1410 1411 1411
1507 1515 1527 1536 1535 1529 1523 1519 1518 1520 1523 1521 1519 1515 1510 1506 1502 1498 1495 1490 1484 1478 1471 1465 1459 1452 1445 1439 1433 1427 1421 1416 1412 1408 1406 1404 1402 1401 1400 1400 1400 1401 1402 1402
1511 1515 1528 1534 1535 1535 1529 1520 1516 1516 1521 1517 1514 1510 1505 1500 1500 1493 1488 1483 1477 1471 1465 1458 1451 1444 1437 1430 1423 1417 1411 1406 1401 1397 1393 1391 1389 1389 1389 1389 1389 1390 1391 1392
1522 1526 1532 1536 1537 1530 1524 1519 1518 1529 1528 1515 1511 1507 1502 1499 1496 1488 1481 1476 1471 1465 1458 1451 1443 1436 1429 1422 1415 1408 1402 1396 1391 1386 1381 1377 1376 1375 1375 1376 1377 1379 1380 1381
1525 1531 1534 1537 1539 1537 1521 1520 1524 1525 1516 1512 1507 1504 1500 1495 1489 1483 1478 1472 1465 1458 1451 1443 1436 1428 1421 1413 1406 1398 1391 1386 1380 1375 1370 1367 1364 1364 1364 1364 1365 1367 1368 1369
1521 1524 1527 1529 1530 1521 1520 1520 1519 1516 1513 1509 1505 1501 1496 1490 1484 1479 1473 1467 1461 1453 1446 1438 1429 1421 1413 1406 1399 1391 1384 1379 1373 1368 1363 1360 1357 1355 1355 1355 1355 1356 1357 1358
1517 1515 1519 1521 1519 1519 1518 1517 1515 1512 1509 1506 1502 1497 1492 1487 1481 1475 1470 1463 1456 1448 1440 1431 1423 1415 1407 1400 1393 1386 1379 1372 1367 1361 1357 1354 1351 1349 1349 1349 1349 1349 1349 1350
1514 1514 1518 1520 1517 1516 1514 1513 1511 1508 1505 1502 1498 1494 1489 1483 1478 1472 1466 1459 1451 1443 1435 1427 1419 1411 1403 1395 1388 1381 1374 1367 1361 1355 1351 1348 1346 1344 1344 1343 1343 1343 1344 1345
1510 1513 1517 1518 1513 1514 1512 1510 1508 1505 1502 1498 1494 1490 1486 1481 1475 1469 1462 1455 1447 1439 1431 1423 1415 1408 1401 1393 1386 1379 1371 1364 1357 1351 1346 1344 1342 1340 1340 1340 1340 1340 1340 1341